User: anonymous   Login
Location: Anjeux
(47.8815°N, 6.2076°E)
Time: 18:08:01
(UTC+00:00)
Language:

VELOX 1 - Orbit

View from above orbital plane
View from above orbital plane
View from above satellite
View from above satellite

Ground track
Ground track

The orbit data is extracted from the following two-line orbital elements,

1 40057U 14034E   21341.40655169  .00000811  00000-0  11897-3 0  9994
2 40057  98.3455 141.6346 0010137 219.6113 140.4361 14.78401277401096
Epoch (UTC): 07 December 2021 09:45:26
Eccentricity: 0.0010137
inclination: 98.3455°
perigee height: 627 km
apogee height: 641 km
right ascension of ascending node: 141.6346°
argument of perigee: 219.6113°
revolutions per day: 14.78401277
mean anomaly at epoch: 140.4361°
orbit number at epoch: 40109

The dashed part of the orbit path shows where the satellite is in the earth's shadow,  

DLR